Flag for U.S.A. Weather past 2 weeks in Odessa, Texas, U.S.A.

Now
80 °F

Sunny.


Feels Like: 81 °F
Forecast: 68 / 80 °F
Wind: 17 mph from Southeast

Location: Odessa-Schlemeyer Field

Current Time: Sep 22, 2014 at 4:07:44 PM

Latest Report: Sep 22, 2014 at 2:53 PM


Visibility: 10 mi

Pressure: 30.08 "Hg

Humidity: 51%

Dew point: 60 °F

Location of OdessaLocation

Historic Weather in Odessa — Graph

°F

Odessa temperature yesterday

Maximum temperature yesterday: 77 °F (at 1:53 PM)
Minimum temperature yesterday: 70 °F (at 4:53 PM)
Average temperature yesterday: 72 °F

Past Weeks' High & Low Weather Summary

 TemperatureHumidityPressure
High96 °F (Sep 10, 2:53 PM)97% (Sep 14, 7:53 AM)30.35 "Hg (Sep 14, 7:53 AM)
Low49 °F (Sep 13, 8:00 AM)22% (Sep 10, 3:53 PM)29.70 "Hg (Sep 10, 5:53 PM)
Average72 °F76%29.98 "Hg
* Reported Sep 7 2:53 PM — Sep 22 2:53 PM, Odessa, Weather by CustomWeather, © 2014

Note: Actual official high and low records may vary slightly from our data, if they occured in-between our weather recording intervals... More about our weather records

Advertising

Odessa weather history for previous 24 hours

 ConditionsComfort  
Time TempWeatherWind HumidityBarometerVisibility
2:53 PM
Sep 22
80 °FSunny.17 mph51%30.08 "Hg10 mi
1:53 PM79 °FPartly sunny.13 mph54%30.11 "Hg10 mi
12:53 PM75 °FLight rain. Cloudy.9 mph76%30.13 "Hg8 mi
11:53 AM75 °FScattered clouds.N/A79%30.15 "Hg10 mi
10:53 AM73 °FPartly sunny.9 mph81%30.15 "Hg10 mi
10:03 AM71 °FBroken clouds.9 mph87%30.27 "Hg7 mi
9:53 AM71 °FFog.9 mph87%30.15 "Hg6 mi
8:53 AM70 °FFog.7 mph90%30.14 "Hg5 mi
7:53 AM69 °FFog.7 mph93%30.12 "Hg5 mi
6:53 AM69 °FPassing clouds.7 mph93%30.11 "Hg7 mi
5:53 AM69 °FMostly cloudy.8 mph93%30.10 "Hg7 mi
4:53 AM70 °FClear.8 mph90%30.10 "Hg8 mi
3:53 AM70 °FMostly cloudy.9 mph90%30.09 "Hg8 mi
2:53 AM70 °FPassing clouds.9 mph90%30.09 "Hg8 mi
1:53 AM70 °FPassing clouds.8 mph90%30.09 "Hg9 mi
12:53 AM70 °FMostly cloudy.10 mph93%30.10 "Hg7 mi
11:53 PM
Sep 21
70 °FFog.8 mph93%30.10 "Hg5 mi
10:53 PM71 °FLight rain. Fog.9 mph90%30.11 "Hg5 mi
9:53 PM71 °FFog.8 mph90%30.09 "Hg6 mi
8:53 PM70 °FOvercast.3 mph93%30.06 "Hg8 mi
7:53 PM70 °FPartly sunny.8 mph90%30.03 "Hg9 mi
6:53 PM71 °FLight rain. Fog.5 mph87%30.04 "Hg6 mi
5:53 PM70 °FLight rain. Fog.8 mph93%30.03 "Hg6 mi
4:53 PM70 °FRain. Cloudy.10 mph84%30.03 "Hg5 mi
Weather by CustomWeather, © 2014

See weather overviewHow to use our weather pages